IGO56K OMDB-VAAH

Flight info

Callsign IGO56K
Flight time N/A
Altitude 35000
Route IVURO M677 LALDO B505 NADSO B524 ALPOR M504 TELEM N893 VASLA VASLA1A
Aircraft A320/M-SDE3FGHIRWY/LB1

Departure

Time 2026-04-26 11:03
Airport Dubai International Airport (OMDB)

Arrival

Time N/A
Airport Sardar Vallabh Patel International Airport (VAAH)
Time Latitude Longitude Altitude Speed Heading
2026-04-26 11:03 25.26709 55.34597 701 ft 165 kts 302°
2026-04-26 11:03 25.27299 55.33500 1202 ft 168 kts 301°
2026-04-26 11:04 25.27898 55.32393 1760 ft 168 kts 302°
2026-04-26 11:04 25.28535 55.31225 2018 ft 183 kts 302°
2026-04-26 11:04 25.29259 55.30047 2410 ft 189 kts 318°
2026-04-26 11:04 25.30430 55.29449 2904 ft 192 kts 352°
2026-04-26 11:05 25.31779 55.29474 3355 ft 195 kts 359°
2026-04-26 11:05 25.33179 55.29518 3671 ft 207 kts 359°
2026-04-26 11:05 25.34640 55.29543 3918 ft 208 kts 360°
2026-04-26 11:05 25.36092 55.29597 4030 ft 223 kts 359°
2026-04-26 11:06 25.37710 55.29646 3996 ft 232 kts
2026-04-26 11:06 25.38774 55.29785 3984 ft 234 kts 13°
2026-04-26 11:06 25.40706 55.30974 4003 ft 260 kts 44°
2026-04-26 11:06 25.41894 55.32567 4429 ft 274 kts 49°
2026-04-26 11:07 25.43106 55.34232 5063 ft 280 kts 49°
2026-04-26 11:07 25.44347 55.35919 5709 ft 285 kts 49°
2026-04-26 11:07 25.45604 55.37627 6377 ft 288 kts 49°
2026-04-26 11:07 25.46875 55.39361 7002 ft 292 kts 49°
2026-04-26 11:08 25.48161 55.41117 7652 ft 295 kts 49°
2026-04-26 11:08 25.49449 55.42901 8307 ft 298 kts 50°
2026-04-26 11:08 25.50724 55.44730 8956 ft 302 kts 53°
2026-04-26 11:08 25.51717 55.46800 9603 ft 308 kts 69°
2026-04-26 11:09 25.52201 55.49141 9998 ft 322 kts 84°
2026-04-26 11:09 25.52078 55.51688 10122 ft 343 kts 102°
2026-04-26 11:09 25.51237 55.54225 10243 ft 361 kts 121°
2026-04-26 11:09 25.49877 55.56633 10467 ft 374 kts 124°
2026-04-26 11:10 25.48472 55.59078 10937 ft 379 kts 124°
2026-04-26 11:10 25.47059 55.61547 11479 ft 381 kts 124°
2026-04-26 11:10 25.45638 55.64039 12038 ft 383 kts 124°
2026-04-26 11:10 25.44207 55.66551 12595 ft 386 kts 124°
2026-04-26 11:11 25.42908 55.69162 13128 ft 390 kts 115°
2026-04-26 11:11 25.42056 55.72024 13673 ft 394 kts 104°
2026-04-26 11:11 25.41443 55.74991 14147 ft 397 kts 104°
2026-04-26 11:11 25.40818 55.77975 14624 ft 400 kts 104°
2026-04-26 11:12 25.40178 55.80982 15081 ft 404 kts 104°
2026-04-26 11:12 25.39524 55.84020 15541 ft 407 kts 104°
2026-04-26 11:12 25.38865 55.87073 16013 ft 410 kts 104°
2026-04-26 11:12 25.38422 55.89122 16304 ft 414 kts 104°
2026-04-26 11:13 25.37765 55.92160 16754 ft 417 kts 104°
2026-04-26 11:13 25.37077 55.95361 17197 ft 422 kts 104°
2026-04-26 11:13 25.36397 55.98532 17693 ft 425 kts 104°
2026-04-26 11:13 25.35490 56.02766 18324 ft 429 kts 104°
2026-04-26 11:14 25.35025 56.04934 18614 ft 432 kts 104°
2026-04-26 11:14 25.34329 56.08179 19064 ft 434 kts 104°
2026-04-26 11:14 25.33632 56.11431 19522 ft 437 kts 104°
2026-04-26 11:14 25.32942 56.14713 19963 ft 440 kts 102°
2026-04-26 11:15 25.32552 56.18090 20389 ft 444 kts 96°
2026-04-26 11:15 25.32275 56.21500 20803 ft 447 kts 96°
2026-04-26 11:15 25.31996 56.24931 21182 ft 450 kts 97°
2026-04-26 11:15 25.31709 56.28399 21543 ft 453 kts 97°
2026-04-26 11:16 25.31418 56.31872 21936 ft 456 kts 97°
2026-04-26 11:16 25.31122 56.35367 22266 ft 458 kts 97°
2026-04-26 11:16 25.30822 56.38884 22630 ft 461 kts 97°
2026-04-26 11:16 25.30578 56.42438 22979 ft 464 kts 95°
2026-04-26 11:17 25.30435 56.45966 23308 ft 467 kts 93°
2026-04-26 11:17 25.30358 56.49564 23610 ft 470 kts 92°
2026-04-26 11:17 25.30306 56.53188 23888 ft 472 kts 92°
2026-04-26 11:17 25.30222 56.56826 24153 ft 474 kts 96°
2026-04-26 11:18 25.29732 56.60419 24421 ft 474 kts 105°
2026-04-26 11:18 25.28728 56.63889 24666 ft 474 kts 115°
2026-04-26 11:18 25.27433 56.67241 24931 ft 476 kts 116°
2026-04-26 11:18 25.26115 56.70664 25195 ft 478 kts 115°
2026-04-26 11:19 25.24839 56.74013 25457 ft 480 kts 115°
2026-04-26 11:19 25.23545 56.77434 25727 ft 482 kts 115°
2026-04-26 11:19 25.22253 56.80856 26000 ft 484 kts 115°
2026-04-26 11:19 25.20950 56.84304 26260 ft 487 kts 115°
2026-04-26 11:20 25.19644 56.87750 26561 ft 488 kts 115°
2026-04-26 11:20 25.18758 56.90084 26823 ft 487 kts 115°
2026-04-26 11:20 25.17008 56.94690 27344 ft 486 kts 115°
2026-04-26 11:20 25.15696 56.98134 27718 ft 486 kts 115°
2026-04-26 11:21 25.14388 57.01564 28107 ft 485 kts 115°
2026-04-26 11:21 25.13077 57.04997 28507 ft 484 kts 115°
2026-04-26 11:21 25.11771 57.08416 28906 ft 484 kts 115°
2026-04-26 11:21 25.10464 57.11833 29303 ft 483 kts 115°
2026-04-26 11:22 25.09172 57.15207 29708 ft 483 kts 115°
2026-04-26 11:22 25.07864 57.18619 30067 ft 483 kts 115°
2026-04-26 11:22 25.06558 57.22024 30367 ft 483 kts 115°
2026-04-26 11:22 25.05242 57.25452 30644 ft 484 kts 114°
2026-04-26 11:23 25.03927 57.28878 30923 ft 486 kts 114°
2026-04-26 11:23 25.02608 57.32316 31209 ft 487 kts 114°
2026-04-26 11:23 25.01288 57.35754 31493 ft 488 kts 114°
2026-04-26 11:23 24.99959 57.39206 31774 ft 489 kts 113°
2026-04-26 11:24 24.98630 57.42658 32080 ft 489 kts 113°
2026-04-26 11:24 24.97302 57.46105 32403 ft 489 kts 112°
2026-04-26 11:24 24.95971 57.49562 32696 ft 490 kts 112°
2026-04-26 11:24 24.94639 57.53020 32984 ft 491 kts 112°
2026-04-26 11:25 24.93299 57.56492 33261 ft 492 kts 112°
2026-04-26 11:25 24.91956 57.59963 33522 ft 493 kts 111°
2026-04-26 11:25 24.90606 57.63443 33776 ft 494 kts 111°
2026-04-26 11:25 24.89252 57.66923 34021 ft 495 kts 111°
2026-04-26 11:26 24.87897 57.70403 34302 ft 494 kts 111°
2026-04-26 11:26 24.86543 57.73889 34561 ft 494 kts 111°
2026-04-26 11:26 24.85194 57.77363 34751 ft 494 kts 111°
2026-04-26 11:26 24.84756 57.78492 34777 ft 494 kts 111°